| time (UTC) | temp F | wind direction | speed MPH | gust MPH | rain 1hr in | rain 24hr in | rain mn in | humidity % | barometer mb |
| 20260902110055 | 68 | 50 | 0.0 | 1.0 | 0.00 | 1.46 | 0.00 | 1 | 1015.1 |
| 20260902104556 | 68 | 53 | 0.0 | 0.0 | 0.00 | 1.46 | 0.00 | 1 | 1015.3 |
| 20260902103047 | 68 | 53 | 0.0 | 0.0 | 0.00 | 1.46 | 0.00 | 1 | 1015.4 |
| 20260902101541 | 69 | 53 | 0.0 | 0.0 | 0.00 | 1.46 | 0.00 | 1 | 1015.4 |
| 20260902100042 | 69 | 49 | 0.0 | 1.0 | 0.00 | 1.46 | 0.00 | 1 | 1015.4 |
| 20260902094533 | 69 | 51 | 0.0 | 2.0 | 0.00 | 1.46 | 0.00 | 1 | 1015.3 |
| 20260902093028 | 69 | 51 | 0.0 | 0.0 | 0.00 | 1.46 | 0.00 | 1 | 1015.3 |
| 20260902091527 | 69 | 51 | 0.0 | 0.0 | 0.00 | 1.47 | 0.00 | 1 | 1015.3 |
| 20260902090024 | 69 | 61 | 0.0 | 0.0 | 0.00 | 1.47 | 0.00 | 1 | 1015.3 |
| 20260902084525 | 69 | 66 | 0.0 | 0.0 | 0.00 | 1.47 | 0.00 | 1 | 1015.4 |
| 20260902083015 | 70 | 55 | 0.0 | 1.0 | 0.00 | 1.47 | 0.00 | 1 | 1015.4 |
| 20260902081510 | 70 | 69 | 0.0 | 2.0 | 0.00 | 1.50 | 0.00 | 1 | 1015.1 |
| 20260902080005 | 70 | 42 | 0.0 | 1.0 | 0.00 | 1.50 | 0.00 | 1 | 1015.1 |
| 20260902074501 | 70 | 360 | 0.0 | 0.0 | 0.00 | 1.50 | 0.00 | 1 | 1015.2 |
| 20260902073059 | 71 | 360 | 0.0 | 3.0 | 0.00 | 1.50 | 0.00 | 1 | 1015.1 |
| 20260902071552 | 71 | 60 | 0.0 | 2.0 | 0.00 | 1.50 | 0.00 | 1 | 1015.2 |
| 20260902070047 | 71 | 53 | 0.0 | 2.0 | 0.00 | 1.50 | 0.00 | 1 | 1015.2 |
| 20260902064549 | 71 | 59 | 0.0 | 3.0 | 0.00 | 1.50 | 0.00 | 1 | 1015.3 |
| 20260902063049 | 71 | 62 | 0.0 | 1.0 | 0.00 | 1.50 | 0.00 | 1 | 1015.2 |
| 20260902061534 | 71 | 54 | 0.0 | 0.0 | 0.00 | 1.50 | 0.00 | 1 | 1015.4 |
| 20260902060034 | 71 | 360 | 0.0 | 1.0 | 0.00 | 1.50 | 0.00 | 1 | 1015.4 |
| 20260902054525 | 71 | 67 | 0.0 | 3.0 | 0.00 | 1.50 | 0.00 | 1 | 1015.3 |
| 20260902053020 | 72 | 57 | 0.0 | 2.0 | 0.00 | 1.50 | 0.00 | 1 | 1015.3 |
| 20260902051518 | 72 | 59 | 0.0 | 2.0 | 0.00 | 1.50 | 0.00 | 1 | 1015.3 |
| 20260902050011 | 72 | 60 | 1.0 | 2.0 | 0.00 | 1.50 | 0.00 | 1 | 1015.1 |
| 20260902044507 | 71 | 360 | 0.0 | 0.0 | 0.00 | 1.50 | 0.00 | 1 | 1015.2 |
| 20260902043003 | 72 | 58 | 0.0 | 0.0 | 0.00 | 1.50 | 0.00 | 1 | 1015.1 |
| 20260902041604 | 72 | 360 | 0.0 | 1.0 | 0.00 | 1.50 | 1.50 | 1 | 1014.9 |
| 20260902040054 | 72 | 56 | 0.0 | 0.0 | 0.00 | 1.50 | 1.50 | 1 | 1014.7 |
| 20260902034549 | 72 | 56 | 0.0 | 1.0 | 0.00 | 1.50 | 1.50 | 1 | 1014.8 |
| 20260902033046 | 72 | 51 | 0.0 | 1.0 | 0.00 | 1.50 | 1.50 | 1 | 1014.5 |
| 20260902031539 | 72 | 58 | 0.0 | 2.0 | 0.00 | 1.50 | 1.50 | 1 | 1014.5 |
| 20260902030035 | 72 | 360 | 0.0 | 1.0 | 0.00 | 1.50 | 1.50 | 1 | 1014.4 |
| 20260902024531 | 73 | 28 | 0.0 | 1.0 | 0.00 | 1.50 | 1.50 | 1 | 1014.2 |
| 20260902023035 | 73 | 25 | 0.0 | 1.0 | 0.00 | 1.50 | 1.50 | 1 | 1014.3 |
| 20260902021522 | 74 | 25 | 0.0 | 0.0 | 0.00 | 1.50 | 1.50 | 1 | 1014.4 |
| 20260902020021 | 74 | 25 | 0.0 | 0.0 | 0.00 | 1.50 | 1.50 | 1 | 1014.4 |
| 20260902014528 | 74 | 25 | 0.0 | 3.0 | 0.00 | 1.50 | 1.50 | 1 | 1014.2 |
| 20260902013009 | 75 | 25 | 1.0 | 2.0 | 0.00 | 1.50 | 1.50 | 1 | 1014.1 |
| 20260902011508 | 75 | 25 | 0.0 | 1.0 | 0.00 | 1.56 | 1.50 | 1 | 1014.0 |
| 20260902010109 | 75 | 25 | 0.0 | 1.0 | 0.00 | 1.56 | 1.50 | 1 | 1014.0 |
| 20260902004556 | 76 | 25 | 0.0 | 2.0 | 0.00 | 1.56 | 1.50 | 1 | 1013.6 |
| 20260902003052 | 77 | 25 | 0.0 | 1.0 | 0.00 | 1.56 | 1.50 | 1 | 1013.5 |
| 20260902001547 | 77 | 25 | 0.0 | 0.0 | 0.00 | 1.56 | 1.50 | 1 | 1013.2 |
| 20260902000048 | 78 | 25 | 0.0 | 0.0 | 0.00 | 1.56 | 1.50 | 1 | 1012.9 |
| 20260901234539 | 79 | 25 | 0.0 | 1.0 | 0.00 | 1.56 | 1.50 | 1 | 1013.1 |
| 20260901233034 | 81 | 26 | 0.0 | 2.0 | 0.00 | 1.56 | 1.50 | 1 | 1013.3 |
| 20260901231529 | 83 | 26 | 0.0 | 2.0 | 0.00 | 1.57 | 1.50 | 1 | 1013.0 |
| 20260901230025 | 83 | 24 | 0.0 | 2.0 | 0.00 | 1.57 | 1.50 | 1 | 1012.8 |
| 20260901224521 | 84 | 24 | 0.0 | 2.0 | 0.00 | 1.57 | 1.50 | 1 | 1013.0 |
| 20260901223017 | 84 | 24 | 1.0 | 4.0 | 0.00 | 1.57 | 1.50 | 1 | 1012.7 |
| 20260901221513 | 85 | 348 | 1.0 | 3.0 | 0.00 | 1.61 | 1.50 | 1 | 1012.7 |
| 20260901220010 | 84 | 348 | 0.0 | 3.0 | 0.00 | 1.61 | 1.50 | 1 | 1013.0 |
| 20260901214519 | 84 | 348 | 0.0 | 2.0 | 0.00 | 1.61 | 1.50 | 1 | 1012.8 |
| 20260901213002 | 84 | 348 | 0.0 | 1.0 | 0.00 | 1.61 | 1.50 | 1 | 1012.8 |
| 20260901211559 | 85 | 348 | 2.0 | 6.0 | 0.00 | 1.61 | 1.50 | 1 | 1012.7 |
| 20260901210111 | 85 | 350 | 1.0 | 5.0 | 0.00 | 1.61 | 1.50 | 1 | 1012.4 |
| 20260901204548 | 84 | 9 | 1.0 | 4.0 | 0.00 | 1.61 | 1.50 | 1 | 1012.6 |
| 20260901203046 | 84 | 42 | 3.0 | 6.0 | 0.00 | 1.61 | 1.50 | 1 | 1012.8 |
| 20260901201540 | 84 | 338 | 2.0 | 4.0 | 0.00 | 1.67 | 1.50 | 1 | 1013.0 |
| 20260901200036 | 84 | 268 | 0.0 | 4.0 | 0.00 | 1.67 | 1.50 | 1 | 1012.9 |
| 20260901194534 | 83 | 207 | 0.0 | 2.0 | 0.00 | 1.67 | 1.50 | 1 | 1013.0 |
| 20260901193030 | 82 | 207 | 1.0 | 7.0 | 0.00 | 1.67 | 1.50 | 1 | 1013.1 |
| 20260901191534 | 80 | 291 | 2.0 | 5.0 | 0.00 | 1.67 | 1.50 | 1 | 1013.0 |
| 20260901190018 | 78 | 218 | 2.0 | 7.0 | 0.00 | 1.67 | 1.50 | 1 | 1013.0 |
| 20260901184514 | 77 | 266 | 1.0 | 5.0 | 0.00 | 1.67 | 1.50 | 1 | 1013.1 |
| 20260901183010 | 77 | 92 | 1.0 | 4.0 | 0.00 | 1.67 | 1.50 | 1 | 1013.0 |
| 20260901181506 | 76 | 92 | 0.0 | 6.0 | 0.00 | 1.70 | 1.50 | 1 | 1012.9 |
| 20260901180001 | 76 | 92 | 1.0 | 4.0 | 0.00 | 1.70 | 1.50 | 1 | 1012.9 |
| 20260901174557 | 74 | 96 | 0.0 | 1.0 | 0.00 | 1.70 | 1.50 | 1 | 1012.9 |
| 20260901173056 | 73 | 92 | 0.0 | 2.0 | 0.00 | 1.70 | 1.50 | 1 | 1012.9 |
| 20260901171554 | 72 | 103 | 0.0 | 2.0 | 0.00 | 1.79 | 1.50 | 1 | 1013.0 |
| 20260901170044 | 72 | 101 | 0.0 | 2.0 | 0.00 | 1.79 | 1.50 | 1 | 1012.9 |
| 20260901164540 | 72 | 99 | 0.0 | 2.0 | 0.00 | 1.79 | 1.50 | 1 | 1013.0 |
| 20260901163039 | 72 | 98 | 0.0 | 2.0 | 0.00 | 1.79 | 1.50 | 1 | 1013.1 |
| 20260901161530 | 71 | 107 | 0.0 | 3.0 | 0.00 | 1.92 | 1.50 | 1 | 1013.1 |
| 20260901160034 | 70 | 106 | 1.0 | 6.0 | 0.00 | 1.92 | 1.50 | 1 | 1013.2 |
| 20260901154521 | 70 | 105 | 1.0 | 3.0 | 0.00 | 1.92 | 1.50 | 1 | 1013.4 |
| 20260901153025 | 70 | 103 | 0.0 | 3.0 | 0.00 | 1.92 | 1.50 | 1 | 1013.4 |
| 20260901151512 | 70 | 102 | 0.0 | 2.0 | 0.01 | 1.92 | 1.50 | 1 | 1013.3 |
| 20260901150015 | 70 | 101 | 0.0 | 3.0 | 0.12 | 1.92 | 1.50 | 1 | 1013.3 |
| 20260901144508 | 69 | 101 | 0.0 | 3.0 | 0.16 | 1.92 | 1.50 | 1 | 1013.2 |
| 20260901143100 | 69 | 101 | 0.0 | 2.0 | 0.17 | 1.92 | 1.50 | 1 | 1013.3 |
| 20260901141601 | 69 | 101 | 0.0 | 1.0 | 0.20 | 1.91 | 1.49 | 1 | 1013.3 |
| 20260901140056 | 69 | 101 | 0.0 | 3.0 | 0.21 | 1.81 | 1.39 | 1 | 1013.8 |
| 20260901134546 | 69 | 101 | 0.0 | 2.0 | 0.51 | 1.76 | 1.34 | 1 | 1013.4 |
| 20260901133042 | 69 | 101 | 2.0 | 6.0 | 0.76 | 1.75 | 1.33 | 1 | 1013.6 |
| 20260901131541 | 68 | 101 | 0.0 | 4.0 | 0.88 | 1.71 | 1.29 | 1 | 1013.5 |
| 20260901130033 | 68 | 100 | 0.0 | 3.0 | 0.98 | 1.56 | 1.13 | 1 | 1014.1 |
| 20260901124538 | 68 | 100 | 1.0 | 3.0 | 0.75 | 1.25 | 0.83 | 1 | 1014.0 |
| 20260901123024 | 68 | 100 | 2.0 | 4.0 | 0.51 | 0.98 | 0.56 | 1 | 1014.2 |
| 20260901121520 | 68 | 100 | 0.0 | 4.0 | 0.34 | 0.81 | 0.39 | 1 | 1014.6 |
| 20260901120015 | 67 | 101 | 0.0 | 3.0 | 0.12 | 0.57 | 0.16 | 1 | 1014.0 |
| 20260901114510 | 67 | 101 | 0.0 | 2.0 | 0.04 | 0.50 | 0.08 | 1 | 1014.0 |
| 20260901113006 | 67 | 101 | 0.0 | 4.0 | 0.01 | 0.47 | 0.05 | 1 | 1014.0 |
| 20260901111503 | 67 | 101 | 0.0 | 3.0 | 0.00 | 0.46 | 0.04 | 1 | 1013.6 |